DW6683 Weather Reports


time (UTC)temp
F
wind
direction
speed
knots
gust
knots
rain 1hr
in
rain 24hr
in
rain mn
in
humidity
%
barometer
mb
20260509080008 52 136 1.7 4.3 0.00 0.00 0.00 82 1003.2
20260509075513 52 229 1.7 4.3 0.00 0.00 0.00 82 1003.2
20260509075007 52 263 1.7 6.1 0.00 0.00 0.00 81 1003.3
20260509074507 52 163 2.6 6.1 0.00 0.00 0.00 81 1003.4
20260509074008 52 227 2.6 7.8 0.00 0.00 0.00 80 1003.4
20260509073507 51 214 2.6 7.0 0.00 0.00 0.00 79 1003.4
20260509073004 51 149 2.6 7.0 0.00 0.00 0.00 77 1003.5
20260509072504 51 250 0.9 5.2 0.00 0.00 0.00 75 1003.6
20260509072002 51 214 1.7 5.2 0.00 0.00 0.00 74 1003.7
20260509071504 51 196 1.7 4.3 0.00 0.00 0.00 72 1003.7
20260509071100 51 238 0.9 5.2 0.00 0.00 0.00 70 1003.8
20260509070559 51 155 1.7 5.2 0.00 0.00 0.00 68 1003.9
20260509070106 51 224 0.9 4.3 0.00 0.00 0.00 66 1003.9
20260509065558 51 176 1.7 5.2 0.00 0.00 0.00 65 1003.9
20260509065057 51 225 1.7 5.2 0.00 0.00 0.00 63 1003.9
20260509064556 51 169 0.9 5.2 0.00 0.00 0.00 61 1003.9
20260509064054 51 129 0.9 7.8 0.00 0.00 0.00 60 1004.0
20260509063553 51 110 2.6 7.8 0.00 0.00 0.00 58 1004.1
20260509063054 52 197 2.6 8.7 0.00 0.00 0.00 56 1004.2
20260509062552 52 109 2.6 8.7 0.00 0.00 0.00 54 1004.3
20260509062052 52 210 2.6 7.0 0.00 0.00 0.00 53 1004.3
20260509061650 52 233 2.6 7.0 0.00 0.00 0.00 51 1004.3
20260509061049 52 169 2.6 8.7 0.00 0.00 0.00 48 1004.3
20260509060549 52 153 3.5 8.7 0.00 0.00 0.00 47 1004.3
20260509060047 52 179 4.3 7.0 0.00 0.00 0.00 46 1004.4
20260509055547 52 137 3.5 7.0 0.00 0.00 0.00 45 1004.5
20260509055048 52 177 1.7 5.2 0.00 0.00 0.00 44 1004.6
20260509054608 52 178 2.6 5.2 0.00 0.00 0.00 43 1004.6
20260509054045 52 181 2.6 7.0 0.00 0.00 0.00 43 1004.6
20260509053545 52 123 2.6 7.0 0.00 0.00 0.00 43 1004.7
20260509053138 51 162 2.6 6.1 0.00 0.00 0.00 42 1004.6
20260509052548 52 117 2.6 6.1 0.00 0.00 0.00 42 1004.6
20260509052044 52 119 2.6 5.2 0.00 0.00 0.00 42 1004.6
20260509051549 52 134 2.6 7.0 0.00 0.00 0.00 41 1004.6
20260509051043 52 147 2.6 7.0 0.00 0.00 0.00 41 1004.5
20260509050542 52 130 2.6 7.0 0.00 0.00 0.00 41 1004.6
20260509050047 52 119 3.5 8.7 0.00 0.00 0.00 40 1004.6
20260509045541 52 126 3.5 7.0 0.00 0.00 0.00 40 1004.7
20260509045039 52 151 3.5 8.7 0.00 0.00 0.00 40 1004.8
20260509044539 52 142 2.6 8.7 0.00 0.00 0.00 41 1004.8
20260509044039 51 180 2.6 6.1 0.00 0.00 0.00 41 1004.8
20260509043536 51 150 2.6 7.8 0.00 0.00 0.00 41 1004.8
20260509043036 51 142 3.5 7.8 0.00 0.00 0.00 41 1004.9
20260509042535 51 153 1.7 5.2 0.00 0.00 0.00 41 1004.9
20260509042036 51 146 2.6 5.2 0.00 0.00 0.00 41 1004.9
20260509041534 51 106 1.7 5.2 0.00 0.00 0.00 41 1005.0
20260509041035 51 139 1.7 3.5 0.00 0.00 0.00 41 1005.0
20260509040531 51 134 1.7 3.5 0.00 0.00 0.00 41 1005.1
20260509040031 51 143 0.9 3.5 0.00 0.00 0.00 41 1005.1
20260509035531 51 168 0.9 3.5 0.00 0.00 0.00 41 1005.2
20260509035034 51 129 0.0 2.6 0.00 0.00 0.00 41 1005.3
20260509034530 52 142 0.0 4.3 0.00 0.00 0.00 40 1005.4
20260509034031 52 126 0.9 4.3 0.00 0.00 0.00 40 1005.4
20260509033529 52 85 0.9 4.3 0.00 0.00 0.00 39 1005.4
20260509033030 52 134 0.9 3.5 0.00 0.00 0.00 40 1005.4
20260509032531 52 134 0.9 2.6 0.00 0.00 0.00 39 1005.5
20260509032028 52 133 0.0 2.6 0.00 0.00 0.00 40 1005.5
20260509031527 52 132 0.9 2.6 0.00 0.00 0.00 39 1005.6
20260509031027 52 248 0.0 3.5 0.00 0.00 0.00 39 1005.7
20260509030526 52 115 0.9 2.6 0.00 0.00 0.00 39 1005.7
20260509030033 52 131 0.0 1.7 0.00 0.00 0.00 39 1005.8
20260509025526 52 153 0.0 1.7 0.00 0.00 0.00 40 1005.8
20260509025025 52 154 0.0 1.7 0.00 0.00 0.00 39 1005.9
20260509024525 52 120 0.0 1.7 0.00 0.00 0.00 39 1005.9
20260509024025 52 153 0.0 0.9 0.00 0.00 0.00 39 1006.0
20260509023524 52 141 0.0 0.9 0.00 0.00 0.00 39 1006.1
20260509023030 52 144 0.0 2.6 0.00 0.00 0.00 40 1006.1
20260509022527 52 154 0.0 2.6 0.00 0.00 0.00 39 1006.1
20260509022027 53 136 0.0 2.6 0.00 0.00 0.00 39 1006.1
20260509021524 53 147 0.0 2.6 0.00 0.00 0.00 39 1006.1
20260509021023 53 142 0.0 2.6 0.00 0.00 0.00 40 1006.0
20260509020523 53 108 0.9 2.6 0.00 0.00 0.00 40 1006.0
20260509020024 53 154 0.0 2.6 0.00 0.00 0.00 41 1005.9
20260509015526 53 128 0.0 0.9 0.00 0.00 0.00 41 1005.9
20260509015025 53 128 0.0 0.9 0.00 0.00 0.00 41 1005.9
20260509014523 53 128 0.0 0.9 0.00 0.00 0.00 39 1005.9
20260509014023 54 129 0.0 0.9 0.00 0.00 0.00 39 1005.9
20260509013525 54 129 0.0 0.9 0.00 0.00 0.00 37 1005.9
20260509013027 54 129 0.0 0.9 0.00 0.00 0.00 38 1005.9
20260509012522 55 129 0.0 0.9 0.00 0.00 0.00 36 1005.8
20260509012026 55 129 0.0 0.9 0.00 0.00 0.00 37 1005.8
20260509011522 56 129 0.0 0.0 0.00 0.00 0.00 36 1005.9
20260509011023 56 129 0.0 0.9 0.00 0.00 0.00 35 1005.8
20260509010522 57 129 0.0 1.7 0.00 0.00 0.00 33 1005.9
20260509010021 57 124 0.0 0.9 0.00 0.00 0.00 32 1005.9
20260509005526 58 153 0.0 1.7 0.00 0.00 0.00 31 1005.9
20260509005021 58 153 0.0 1.7 0.00 0.00 0.00 30 1005.9
20260509004526 59 125 0.0 1.7 0.00 0.00 0.00 30 1005.9
20260509004020 60 157 0.0 2.6 0.00 0.00 0.00 29 1005.9
20260509003520 60 158 0.9 3.5 0.00 0.00 0.00 28 1005.9
20260509003037 60 145 1.7 3.5 0.00 0.00 0.00 28 1006.0
20260509002519 61 141 0.9 4.3 0.00 0.00 0.00 28 1006.0
20260509002018 61 237 1.7 4.3 0.00 0.00 0.00 27 1006.1
20260509001517 61 228 0.9 3.5 0.00 0.00 0.00 27 1006.2
20260509001017 62 212 1.7 4.3 0.00 0.00 0.00 27 1006.2
20260509000521 62 215 1.7 4.3 0.00 0.00 0.00 27 1006.2
20260509000017 62 204 1.7 4.3 0.00 0.00 0.00 28 1006.2
20260508235517 62 243 1.7 6.1 0.00 0.00 0.00 27 1006.3
20260508235016 61 213 2.6 6.1 0.00 0.00 0.00 29 1006.4
20260508234514 61 245 1.7 6.1 0.00 0.00 0.00 29 1006.5
20260508234014 61 276 1.7 5.2 0.00 0.00 0.00 28 1006.6
20260508233515 61 231 0.9 7.8 0.00 0.00 0.00 29 1006.5
20260508233014 62 269 3.5 7.8 0.00 0.00 0.00 28 1006.6
20260508232514 62 231 2.6 7.0 0.00 0.00 0.00 28 1006.6
20260508232013 62 244 3.5 7.0 0.00 0.00 0.00 28 1006.7
20260508231513 62 256 1.7 7.0 0.00 0.00 0.00 28 1006.7
20260508231013 62 224 3.5 7.8 0.00 0.00 0.00 28 1006.7
20260508230512 63 273 2.6 10.4 0.00 0.00 0.00 28 1006.8
20260508230012 63 218 1.7 10.4 0.00 0.00 0.00 29 1006.7
20260508225517 63 257 2.6 7.8 0.00 0.00 0.00 28 1006.6
20260508225012 63 252 2.6 7.8 0.00 0.00 0.00 29 1006.7
20260508224512 63 256 2.6 10.4 0.00 0.00 0.00 28 1006.7
20260508224011 63 232 3.5 10.4 0.00 0.00 0.00 28 1006.6
20260508223514 63 268 3.5 7.8 0.00 0.00 0.00 28 1006.6
20260508223016 63 231 3.5 10.4 0.00 0.00 0.00 28 1006.7
20260508222510 63 279 4.3 10.4 0.00 0.00 0.00 29 1006.7
20260508222010 64 243 1.7 7.8 0.00 0.00 0.00 30 1006.8
20260508221510 64 248 2.6 7.8 0.00 0.00 0.00 30 1006.8
20260508221010 64 249 2.6 13.0 0.00 0.00 0.00 29 1006.7
20260508220514 63 266 6.1 13.0 0.00 0.00 0.00 28 1006.8
20260508220015 63 251 4.3 9.6 0.00 0.00 0.00 28 1006.7
20260508215510 63 280 4.3 9.6 0.00 0.00 0.00 30 1006.7
20260508215009 63 266 2.6 8.7 0.00 0.00 0.00 30 1006.7
20260508214509 63 214 3.5 9.6 0.00 0.00 0.00 29 1006.8
20260508214009 63 283 6.1 9.6 0.00 0.00 0.00 27 1006.8
20260508213507 63 208 5.2 9.6 0.00 0.00 0.00 29 1006.7
20260508213007 63 255 0.9 5.2 0.00 0.00 0.00 29 1006.8
20260508212509 63 302 2.6 9.6 0.00 0.00 0.00 28 1006.9
20260508212010 63 265 4.3 10.4 0.00 0.00 0.00 27 1006.9
20260508211505 63 334 1.7 10.4 0.00 0.00 0.00 31 1007.0
20260508211005 63 296 0.9 9.6 0.00 0.00 0.00 30 1006.9
20260508210505 63 276 5.2 9.6 0.00 0.00 0.00 28 1006.9
20260508210004 64 205 3.5 7.8 0.00 0.00 0.00 29 1007.0
20260508205503 63 262 2.6 8.7 0.00 0.00 0.00 29 1007.1
20260508205002 62 203 5.2 12.2 0.00 0.00 0.00 30 1007.1
20260508204506 62 269 7.8 12.2 0.00 0.00 0.00 29 1007.3
20260508204002 62 288 5.2 10.4 0.00 0.00 0.00 29 1007.2
20260508203503 62 255 3.5 7.8 0.00 0.00 0.00 30 1007.2
20260508203002 62 295 3.5 7.8 0.00 0.00 0.00 29 1007.3
20260508202601 63 242 4.3 10.4 0.00 0.00 0.00 29 1007.4
20260508202001 62 227 6.1 12.2 0.00 0.00 0.00 29 1007.5
20260508201613 62 252 4.3 12.2 0.00 0.00 0.00 30 1007.6
20260508201059 63 249 6.1 11.3 0.00 0.00 0.00 30 1007.7
20260508200558 63 246 5.2 10.4 0.00 0.00 0.00 30 1007.7
20260508200107 62 270 4.3 12.2 0.00 0.00 0.00 29 1007.8
20260508195557 62 226 4.3 13.0 0.00 0.00 0.00 31 1007.8
20260508195056 62 251 7.8 13.0 0.00 0.00 0.00 29 1007.9
20260508194600 62 258 6.1 11.3 0.00 0.00 0.00 31 1007.9
20260508194102 63 290 3.5 12.2 0.00 0.00 0.00 30 1007.9
20260508193554 62 159 5.2 11.3 0.00 0.00 0.00 31 1008.0
20260508193104 62 227 4.3 8.7 0.00 0.00 0.00 30 1008.1
20260508192555 62 206 0.9 9.6 0.00 0.00 0.00 30 1008.0
20260508192056 61 321 5.2 9.6 0.00 0.00 0.00 28 1008.1
20260508191554 62 227 4.3 11.3 0.00 0.00 0.00 29 1008.1
20260508191053 62 234 5.2 11.3 0.00 0.00 0.00 27 1008.1
20260508190552 62 203 2.6 12.2 0.00 0.00 0.00 29 1008.1
20260508190056 63 226 3.5 8.7 0.00 0.00 0.00 28 1008.2
20260508185553 63 217 1.7 12.2 0.00 0.00 0.00 28 1008.3
20260508185053 63 207 4.3 12.2 0.00 0.00 0.00 27 1008.3
20260508184601 63 227 3.5 9.6 0.00 0.00 0.00 28 1008.4
20260508184050 62 236 2.6 9.6 0.00 0.00 0.00 29 1008.4
20260508183550 62 288 5.2 11.3 0.00 0.00 0.00 28 1008.5
20260508183102 62 255 4.3 13.9 0.00 0.00 0.00 29 1008.5
20260508182550 63 232 4.3 13.9 0.00 0.00 0.00 29 1008.5
20260508182048 63 205 1.7 9.6 0.00 0.00 0.00 30 1008.5
20260508181547 62 252 6.1 9.6 0.00 0.00 0.00 28 1008.7
20260508181046 62 66 0.9 9.6 0.00 0.00 0.00 28 1008.7
20260508180546 62 254 5.2 13.0 0.00 0.00 0.00 29 1008.7
20260508180046 62 236 5.2 13.0 0.00 0.00 0.00 27 1008.8
20260508175546 62 141 5.2 11.3 0.00 0.00 0.00 27 1008.8
20260508175045 63 221 3.5 11.3 0.00 0.00 0.00 28 1008.9
20260508174558 62 238 0.9 8.7 0.00 0.00 0.00 32 1009.0
20260508174043 62 195 2.6 9.6 0.00 0.00 0.00 31 1009.1
20260508173543 62 231 3.5 9.6 0.00 0.00 0.00 31 1009.2
20260508173042 61 108 0.9 10.4 0.00 0.00 0.00 31 1009.2
20260508172542 61 203 5.2 10.4 0.00 0.00 0.00 30 1009.3
20260508172040 62 247 3.5 10.4 0.00 0.00 0.00 33 1009.4
20260508171538 61 248 4.3 10.4 0.00 0.00 0.00 32 1009.4
20260508171042 60 270 5.2 10.4 0.00 0.00 0.00 34 1009.6
20260508170537 60 229 4.3 13.9 0.00 0.00 0.00 35 1009.7
20260508170038 60 317 5.2 13.9 0.00 0.00 0.00 34 1009.7
20260508165535 60 248 5.2 11.3 0.00 0.00 0.00 32 1009.9
20260508165035 61 248 2.6 10.4 0.00 0.00 0.00 37 1009.9
20260508164541 60 235 4.3 9.6 0.00 0.00 0.00 34 1010.1
20260508164033 60 252 4.3 9.6 0.00 0.00 0.00 35 1010.2
20260508163532 59 144 1.7 7.0 0.00 0.00 0.00 34 1010.2
20260508163055 59 251 1.7 11.3 0.00 0.00 0.00 32 1010.3
20260508162532 59 272 3.5 10.4 0.00 0.00 0.00 31 1010.4
20260508162032 59 270 1.7 7.8 0.00 0.00 0.00 35 1010.3
20260508161531 59 158 2.6 7.8 0.00 0.00 0.00 35 1010.3
20260508161030 60 225 1.7 9.6 0.00 0.00 0.00 35 1010.4
20260508160533 60 223 4.3 9.6 0.00 0.00 0.00 37 1010.4
20260508160030 58 236 2.6 8.7 0.00 0.00 0.00 38 1010.4
20260508155529 59 274 3.5 7.0 0.00 0.00 0.00 38 1010.4
20260508155028 59 288 3.5 6.1 0.00 0.00 0.00 38 1010.4
20260508154528 59 229 1.7 7.0 0.00 0.00 0.00 38 1010.3
20260508154026 58 104 3.5 7.0 0.00 0.00 0.00 38 1010.4
20260508153526 58 291 3.5 7.8 0.00 0.00 0.00 39 1010.5
20260508153127 58 271 4.3 10.4 0.00 0.00 0.00 45 1010.4
20260508152524 57 258 4.3 10.4 0.00 0.00 0.00 44 1010.5
20260508152024 58 263 2.6 9.6 0.00 0.00 0.00 45 1010.5
20260508151531 58 188 2.6 7.8 0.00 0.00 0.00 44 1010.5
20260508151029 57 256 1.7 9.6 0.00 0.00 0.00 47 1010.5
20260508150524 57 239 4.3 9.6 0.00 0.00 0.00 48 1010.7
20260508150027 57 156 2.6 9.6 0.00 0.00 0.00 49 1010.8
20260508145521 57 197 1.7 8.7 0.00 0.00 0.00 51 1010.8
20260508145020 57 240 2.6 8.7 0.00 0.00 0.00 47 1010.9
20260508144520 57 238 2.6 6.1 0.00 0.00 0.00 49 1010.8
20260508144020 56 214 1.7 7.8 0.00 0.00 0.00 51 1010.8
20260508143519 56 196 1.7 7.8 0.00 0.00 0.00 51 1010.8
20260508143019 56 272 3.5 7.0 0.00 0.00 0.00 48 1010.9
20260508142518 56 237 1.7 5.2 0.00 0.00 0.00 57 1010.9
20260508142017 56 186 0.9 6.1 0.00 0.00 0.00 61 1010.9
20260508141517 55 221 2.6 5.2 0.00 0.00 0.00 60 1011.0
20260508141015 55 269 3.5 6.1 0.00 0.00 0.00 60 1011.0
20260508140517 55 247 3.5 6.1 0.00 0.00 0.00 59 1011.0
20260508140014 55 226 1.7 5.2 0.00 0.00 0.00 61 1011.1
20260508135515 54 222 2.6 5.2 0.00 0.00 0.00 62 1011.0
20260508135016 54 238 3.5 5.2 0.00 0.00 0.00 62 1011.1
20260508134515 54 243 0.9 5.2 0.00 0.00 0.00 64 1011.1
20260508134011 52 90 1.7 5.2 0.00 0.00 0.00 64 1011.1
20260508133518 53 106 1.7 4.3 0.00 0.00 0.00 64 1011.1
20260508133010 53 141 1.7 4.3 0.00 0.00 0.00 64 1011.2
20260508132509 52 255 1.7 4.3 0.00 0.00 0.00 65 1011.2
20260508132008 52 233 1.7 3.5 0.00 0.00 0.00 66 1011.2
20260508131507 52 245 0.9 4.3 0.00 0.00 0.00 68 1011.2
20260508131007 51 231 1.7 4.3 0.00 0.00 0.00 67 1011.3
20260508130506 51 248 0.9 2.6 0.00 0.00 0.00 67 1011.2
20260508130005 51 254 0.9 2.6 0.00 0.00 0.00 67 1011.2
20260508125506 50 186 0.0 3.5 0.00 0.00 0.00 70 1011.3
20260508125004 50 226 1.7 3.5 0.00 0.00 0.00 69 1011.4
20260508124505 50 245 1.7 3.5 0.00 0.00 0.00 69 1011.5
20260508124003 50 152 0.0 1.7 0.00 0.00 0.00 69 1011.4
20260508123502 50 231 0.0 1.7 0.00 0.00 0.00 69 1011.5
20260508123101 49 178 0.0 1.7 0.00 0.00 0.00 71 1011.5
20260508122600 48 189 0.0 0.9 0.00 0.00 0.00 71 1011.4
20260508122058 47 245 0.0 0.0 0.00 0.00 0.00 72 1011.3
20260508121557 47 169 0.0 0.9 0.00 0.00 0.00 72 1011.3
20260508121056 47 239 0.0 0.9 0.00 0.00 0.00 72 1011.2
20260508120554 46 154 0.0 0.0 0.00 0.00 0.00 74 1011.3
20260508120054 45 149 0.0 0.0 0.00 0.00 0.00 75 1011.1
20260508115552 44 152 0.0 0.9 0.00 0.00 0.00 78 1011.1
20260508115050 43 141 0.0 0.0 0.00 0.00 0.00 79 1011.1
20260508114548 42 149 0.0 0.0 0.00 0.00 0.00 79 1011.0
20260508114048 42 150 0.0 0.0 0.00 0.00 0.00 80 1011.0
20260508113547 42 152 0.0 0.0 0.00 0.00 0.00 81 1011.1
20260508113053 41 148 0.0 0.0 0.00 0.00 0.00 85 1010.9
20260508112545 39 148 0.0 0.0 0.00 0.00 0.00 85 1010.9
20260508112045 38 148 0.0 0.0 0.00 0.00 0.00 87 1010.9
20260508111544 37 148 0.0 0.0 0.00 0.00 0.00 89 1010.9
20260508111044 37 148 0.0 0.0 0.00 0.00 0.00 89 1010.9
20260508110543 36 148 0.0 0.0 0.00 0.00 0.00 92 1010.9
20260508110059 36 148 0.0 0.0 0.00 0.00 0.00 93 1010.9
20260508105544 35 148 0.0 0.0 0.00 0.00 0.00 94 1010.9
20260508105043 34 148 0.0 0.0 0.00 0.00 0.00 93 1010.8
20260508104546 33 148 0.0 0.0 0.00 0.00 0.00 92 1010.8
20260508104043 33 148 0.0 0.0 0.00 0.00 0.00 92 1010.6
20260508103542 33 148 0.0 0.0 0.00 0.00 0.00 92 1010.6
20260508103043 33 148 0.0 0.0 0.00 0.00 0.00 92 1010.6
20260508102542 33 148 0.0 0.0 0.00 0.00 0.00 91 1010.7
20260508102041 33 148 0.0 0.0 0.00 0.00 0.00 91 1010.6
20260508101550 33 148 0.0 0.0 0.00 0.00 0.00 91 1010.7
20260508101038 34 148 0.0 0.0 0.00 0.00 0.00 91 1010.7
20260508100538 34 148 0.0 0.0 0.00 0.00 0.00 91 1010.8
20260508100039 34 148 0.0 0.0 0.00 0.00 0.00 91 1010.8
20260508095540 34 148 0.0 0.0 0.00 0.00 0.00 91 1010.8
20260508095036 34 148 0.0 0.0 0.00 0.00 0.00 90 1010.8
20260508094549 34 148 0.0 0.0 0.00 0.00 0.00 91 1010.7
20260508094035 34 148 0.0 0.0 0.00 0.00 0.00 90 1010.8
20260508093536 34 148 0.0 0.0 0.00 0.00 0.00 90 1010.8
20260508093050 34 148 0.0 0.0 0.00 0.00 0.00 90 1010.9
20260508092535 35 148 0.0 0.0 0.00 0.00 0.00 90 1010.9
20260508092034 35 148 0.0 0.0 0.00 0.00 0.00 91 1010.9
20260508091534 34 148 0.0 0.0 0.00 0.00 0.00 90 1011.0
20260508091033 35 148 0.0 0.0 0.00 0.00 0.00 90 1010.9
20260508090534 35 148 0.0 0.0 0.00 0.00 0.00 89 1010.9
20260508090049 35 148 0.0 0.0 0.00 0.00 0.00 90 1010.9
20260508085531 35 148 0.0 0.0 0.00 0.00 0.00 89 1010.9
20260508085030 35 148 0.0 0.0 0.00 0.00 0.00 89 1010.9
20260508084530 35 148 0.0 0.0 0.00 0.00 0.00 88 1010.9
20260508084029 36 148 0.0 0.0 0.00 0.00 0.00 88 1010.9
20260508083528 36 148 0.0 0.0 0.00 0.00 0.00 88 1010.9
20260508083030 36 148 0.0 0.0 0.00 0.00 0.00 88 1011.0
20260508082530 36 148 0.0 0.0 0.00 0.00 0.00 87 1011.0
20260508082028 36 148 0.0 0.0 0.00 0.00 0.00 87 1011.0
20260508081527 36 148 0.0 0.0 0.00 0.00 0.00 86 1011.0
20260508081026 37 148 0.0 0.0 0.00 0.00 0.00 86 1011.0
20260508080524 37 148 0.0 0.0 0.00 0.00 0.00 85 1011.0